sat.trackr.live / text

‹ back to catalog

STARLINK-34082

NORAD 64100 · 2025-110E

PAYLOAD ACTIVE UNKNOWN

§ Identity

Operator
Country
US
Launch date
2025-05-23
Launch site
AFWTR
Launch vehicle
Mass (kg)
RCS (m²)

Purposes: comms

External: N2YO · Heavens-Above · Gunter

§ Orbital elements

Epoch: 2026-09-20T05:21:40.599648Z

Period
93.85 min
Inclination
53.1597°
Eccentricity
0.0001615
Mean motion
15.34405203 rev/d
Perigee alt
461.6 km
Apogee alt
463.8 km
Semi-major
6,840.8 km
B*
5.3450e-4
RAAN
202.6640°
Arg perigee
100.9360°
Mean anomaly
259.1824°
Rev number
7,567

§ Raw data

STARLINK-340821 64100U 25110E   26263.22338657  .00017728  00000+0  53450-3 0  99992 64100  53.1597 202.6640 0001615 100.9360 259.1824 15.34405203 75678

JSON: /api/v1/satellites/64100 · /tle

For live sub-satellite position, see the globe view (requires WebGL).

§ Visibility from observer

Set your observer location to see the next 7 days of passes ≥ 10°. The values pass through the URL so the page stays shareable.

No JS? Fill the form by hand. The geolocation button needs JavaScript.